Weather Roundup
Issued by NWS Corpus Christi, TX

Home | Current Version | Previous Version | Text Only | Print | Product List | Glossary On
Versions: 1 2 3 4 5 6 7 8 9 10 11 12 13 14 15 16 17 18 19 20 21 22 23 24 25 26 27 28 29 30 31 32 33 34 35 36 37 38 39 40 41 42 43 44 45 46 47 48 49 50
000
ASUS44 KCRP 021810
HRRCRP

SOUTH TEXAS REGIONAL WEATHER ROUNDUP
NATIONAL WEATHER SERVICE CORPUS CHRISTI TX
100 PM CDT THU JUL 02 2015


TXZ229>244-021900-
...CORPUS CHRISTI AREA OBSERVATIONS...

CITY           SKY/WX    TMP DP  RH WIND       PRES   REMARKS
CORPUS CHRISTI PTSUNNY   89  76  65 SE21G30   30.02S HX 100
NAS CORPUS CHR PTSUNNY   86  77  74 S20       30.03S HX  97
ROCKPORT       LGT RAIN  89  76  65 SE14G23   30.02S HX 100
KINGSVILLE NAS PTSUNNY   86  78  77 SE20G28   30.01S HX  98
ALICE          MOSUNNY   90  75  61 SE16G25   29.99F HX 100
FALFURRIAS     NOT AVBL
$$

...VICTORIA AREA OBSERVATIONS...

CITY           SKY/WX    TMP DP  RH WIND       PRES   REMARKS
VICTORIA       MOSUNNY   89  72  56 SE21      30.02F HX  96
BEEVILLE       NOT AVBL
PLEASANTON     NOT AVBL
SAN ANTONIO    PTSUNNY   86  71  60 S17       30.02F HX  91
$$

...LAREDO AREA OBSERVATIONS...

CITY           SKY/WX    TMP DP  RH WIND       PRES   REMARKS
LAREDO         MOSUNNY   92  69  46 S20G29    29.97F HX  96
COTULLA        LGT RAIN  88  73  61 S14G24    29.98F HX  95
DEL RIO        MOSUNNY   83  68  60 SE14G26   29.97F
MCALLEN        LGT RAIN  86  73  65 SE16G24   30.01F HX  93
HEBBRONVILLE   NOT AVBL
$$

...OTHER TEXAS OBSERVATIONS...

CITY           SKY/WX    TMP DP  RH WIND       PRES   REMARKS
BROWNSVILLE    PTSUNNY   79  78  97 S8        30.02S
HOUSTON        CLOUDY    89  74  60 S6G18     30.03F HX  98
COL. STATION   PTSUNNY   87  73  62 S8        30.03F HX  94
AUSTIN         PTSUNNY   86  72  62 S16       30.01F HX  92
WACO           MOSUNNY   89  69  51 S17G25    30.01F HX  93
FORT WORTH     MOSUNNY   89  65  44 SW22G30   29.97F HX  91
WICHITA FALLS  MOSUNNY   89  71  55 SW15      29.92F HX  95
LUBBOCK        PTSUNNY   88  63  43 SE6       30.02F
EL PASO        PTSUNNY   92  51  24 E6        30.02F
$$

...MARINE OBSERVATIONS...

STATION/POSITION TIME  SKY/WX   TEMP    WIND        PRES    VSBY  WAVE   SWELL
                                AIR SEA DIR/SP/G                  HT/PER HT/PER
                 (UTC)          (F)     (DEG/KT/KT) (MB)    (MI)  (FT/S) (FT/S)
PORT ARANSAS     1700            82 79  130/ 13/ 14 1017.5R
BUOY 90 E PORT A NOT AVBL
BUOY 45 SE BAFFI 1750            84 84  140/ 17/ 21 1016.2S         3/ 7   2/ 7
BUOY 200 E PT IS 1750            85 84  120/ 17/ 19 1017.4F         4/ 6   2/11
BUOY 15 E GALVES 1750            84 83  170/ 12/ 14 1017.4F         3/ 7   2/ 7
$$


USA.gov is the U.S. government's official web portal to all federal, state and local government web resources and services.